Wind_Speed
13 13 13 13 13 13 13 13 13 13 13 13 13 13 13 13 13 13 13 13 13 13 13 14 14 15 15 15 14 15 17 19 21 14 12 24 26 18 15 10 6 11 10 7 5 4 3 4 6 7 6 3 2 1 2 3 1 1 3 2 2 3 3 4 6 4 2 3 6 6 3 5 3 4 2 4 6 4 4 5 4 6 7 6 12 24 27 24
13 13 13 13 13 13 13 13 13 13 13 14 14 14 14 14 14 13 13 13 13 13 13 14 14 14 15 15 14 14 18 20 18 16 25 31 26 21 19 11 9 12 14 13 9 9 6 3 6 6 4 2 1 2 2 2 3 3 3 2 4 4 4 5 5 5 2 3 7 6 4 3 2 1 2 3 1 1 5 4 5 8 8 10 16 23 23 24
13 13 13 14 14 14 14 14 14 14 14 14 14 14 14 14 14 14 14 13 14 14 14 14 14 14 15 14 13 14 17 15 9 15 27 24 20 24 22 16 13 13 16 15 11 12 7 3 8 6 3 1 1 2 2 2 3 3 3 2 5 5 5 6 7 9 7 5 6 6 4 5 2 1 2 5 3 1 3 2 3 7 8 11 12 15 19 20
13 14 14 14 14 14 14 14 14 14 14 14 15 15 15 15 15 14 14 14 14 14 14 14 14 14 15 13 13 13 12 8 4 11 14 10 13 17 19 20 17 14 15 13 7 10 8 4 7 5 3 1 3 0 2 3 3 2 3 5 5 4 4 8 8 8 8 5 4 5 3 5 5 1 3 7 5 2 4 5 5 9 12 14 11 12 14 15
13 14 14 14 14 14 14 15 15 15 15 15 15 15 15 15 15 15 15 15 14 14 14 14 14 15 14 13 12 10 5 3 4 5 3 5 10 11 16 21 21 16 14 12 6 8 8 3 4 3 3 1 2 0 3 5 3 2 4 5 4 3 5 8 4 6 7 4 4 4 2 1 4 2 4 7 5 4 6 4 7 14 16 16 15 12 10 11
14 15 15 15 15 15 15 15 15 15 15 15 15 16 15 15 16 16 15 15 15 14 14 14 14 14 13 11 7 4 1 2 6 3 3 4 4 8 15 22 24 18 15 12 6 8 7 2 4 3 3 1 3 4 4 4 3 2 5 4 5 5 6 6 2 6 6 3 5 4 2 1 2 3 2 6 6 7 5 4 10 13 15 17 15 12 11 11
14 15 15 15 15 15 15 15 15 15 16 16 16 16 16 16 16 16 16 15 15 15 15 14 14 14 12 8 2 1 2 6 15 9 6 7 5 4 14 22 23 19 16 13 8 7 5 5 4 3 4 2 4 6 5 2 3 4 5 5 6 6 8 9 6 7 5 4 8 3 1 1 1 4 3 1 4 4 2 5 11 11 11 13 12 13 13 10
13 15 15 15 15 15 15 15 16 16 16 16 16 17 16 17 16 16 16 15 15 15 14 14 13 12 11 6 0 1 1 13 25 20 16 12 4 6 18 22 21 19 18 16 11 8 6 6 6 4 4 4 4 4 4 2 1 4 6 6 5 5 8 10 8 9 7 6 7 1 1 5 6 1 2 5 4 1 4 8 11 10 9 9 10 12 10 8
13 14 15 15 15 15 15 16 16 16 16 16 17 17 17 17 17 17 16 15 15 14 14 14 12 10 9 5 1 2 7 17 23 19 17 12 6 10 19 20 20 20 17 17 14 9 7 6 6 5 4 5 4 3 4 3 3 6 7 6 5 7 9 7 6 8 8 5 2 2 4 8 5 1 2 7 3 4 7 9 10 10 9 8 8 9 8 9
15 15 15 15 15 16 16 16 16 16 16 17 17 18 18 18 18 17 16 15 14 14 14 12 10 8 7 3 2 3 8 11 11 11 12 10 10 14 18 17 20 21 15 13 14 12 9 7 6 4 2 3 4 4 4 5 4 5 6 6 7 9 9 4 5 8 6 4 5 6 7 8 4 0 3 7 3 6 9 9 9 10 10 9 8 7 8 9
16 17 16 15 15 16 16 16 17 17 17 17 18 18 18 18 18 18 16 15 14 14 13 11 9 7 5 1 3 5 6 4 2 2 4 11 15 17 19 18 19 22 17 9 14 21 15 8 5 1 2 2 3 3 4 5 3 3 3 4 7 7 6 4 6 7 3 2 7 8 6 6 4 2 6 6 4 7 9 9 9 9 9 8 8 6 6 7
16 17 17 16 16 16 16 16 17 17 18 18 18 19 19 19 19 18 17 15 14 13 11 10 7 4 4 1 6 15 9 2 4 8 3 9 15 16 16 18 18 21 20 11 15 25 17 8 5 2 3 2 1 2 3 4 1 3 1 3 7 5 4 5 4 5 5 2 7 7 2 6 3 6 6 3 5 7 9 9 8 8 7 7 7 6 6 7
17 16 16 15 15 16 17 17 17 18 18 19 19 20 20 20 19 18 17 15 14 12 11 8 5 3 1 1 11 21 15 8 8 15 13 9 11 13 12 13 17 19 21 16 15 20 20 13 7 4 4 1 3 3 1 1 1 2 1 2 4 6 4 7 2 3 6 3 5 7 2 7 7 10 5 0 6 8 7 8 7 7 7 6 6 6 6 7
17 16 16 15 15 16 16 16 17 18 19 20 20 21 21 21 20 19 16 15 13 10 8 5 3 2 1 6 14 15 15 16 18 20 16 11 10 11 11 11 14 18 21 19 12 11 18 16 7 2 3 3 3 5 3 5 2 2 2 1 1 1 4 8 2 4 5 2 3 6 2 7 10 12 3 3 6 10 8 8 7 7 6 6 6 7 8 7
17 17 16 16 16 16 16 17 17 18 19 20 21 22 23 22 21 18 15 15 10 5 5 3 5 4 1 10 15 10 10 13 18 23 18 12 11 8 10 12 14 16 19 19 13 8 10 8 4 2 4 3 1 2 3 4 3 2 0 2 3 2 4 9 4 4 5 2 1 5 2 6 10 11 1 5 7 9 9 8 8 8 8 7 6 7 8 7
18 18 17 16 16 16 16 17 17 18 19 21 22 23 24 23 21 17 14 10 5 3 3 2 7 6 1 7 8 6 8 11 14 19 18 16 15 10 9 10 11 13 14 16 15 11 6 1 2 3 2 2 4 3 2 4 4 3 2 2 3 1 2 5 5 2 4 2 2 2 3 4 6 6 3 5 8 8 8 9 10 10 8 8 6 7 7 6
19 18 17 16 15 16 16 17 17 18 19 21 23 26 25 21 17 14 10 6 3 4 5 3 6 6 4 8 7 6 7 12 12 12 16 20 18 15 8 6 6 8 9 10 8 6 4 1 2 1 1 1 3 4 2 2 3 3 2 0 2 2 1 2 4 5 1 4 2 2 4 7 9 6 3 3 6 9 9 11 11 9 7 6 6 7 7 7
18 17 16 16 16 16 16 17 17 18 19 21 24 26 21 12 6 5 5 7 5 3 3 2 3 4 6 10 6 5 4 5 10 9 15 19 19 18 11 5 4 6 4 1 2 2 1 0 0 1 2 2 3 5 3 5 4 3 0 1 2 3 1 2 3 3 2 1 3 2 4 11 12 10 5 4 4 8 10 10 9 7 6 6 6 6 6 7
18 16 15 16 16 16 16 17 17 17 19 21 23 20 9 4 4 3 6 8 6 3 3 4 5 3 4 7 6 7 8 3 7 9 13 17 16 15 11 5 4 6 5 1 2 3 3 1 2 3 2 2 4 5 7 7 7 7 4 4 1 2 3 4 4 6 2 1 4 5 8 11 12 11 7 6 4 4 7 6 5 4 4 6 5 5 6 5
17 16 15 15 16 16 16 16 17 17 17 20 22 16 2 3 2 1 3 4 6 5 4 5 10 5 5 3 2 6 8 3 2 6 13 18 14 9 6 4 4 4 4 4 4 3 3 3 3 5 6 6 7 7 7 6 6 5 3 2 1 1 4 5 5 6 1 3 6 9 10 10 11 9 6 5 6 3 3 7 7 6 5 5 5 7 6 3
16 15 15 16 16 16 16 17 17 17 16 17 17 9 1 2 0 0 1 6 10 12 11 8 12 12 11 8 6 10 6 3 3 2 11 17 14 8 3 3 4 2 3 5 3 1 3 5 6 7 9 8 7 7 6 4 4 3 2 1 3 2 4 6 4 6 1 5 5 5 8 10 11 7 6 6 7 7 4 2 6 7 7 5 6 7 3 5
15 14 15 16 16 16 16 17 17 17 17 17 12 4 5 4 1 5 5 4 9 14 17 14 12 16 17 16 16 9 3 3 5 4 7 12 9 6 3 4 5 4 2 3 3 1 1 4 8 8 7 5 4 4 5 3 4 3 2 2 3 2 3 6 5 6 1 3 3 3 6 8 9 5 5 7 6 5 7 5 3 4 5 6 5 2 6 6
15 14 15 15 16 17 17 17 19 19 19 15 8 8 7 5 6 14 8 2 7 9 12 13 13 14 13 13 14 9 4 4 4 4 8 11 5 6 5 5 6 4 3 4 5 3 2 5 8 6 6 6 2 2 5 3 2 3 3 3 3 2 0 3 4 6 3 1 1 5 5 4 7 4 4 4 3 5 10 10 9 7 5 4 1 5 7 7
15 15 15 15 16 16 17 19 20 16 12 11 13 14 9 11 16 17 5 2 6 5 8 13 11 9 11 8 8 11 5 4 4 3 9 12 5 4 5 4 6 5 3 6 7 5 5 6 4 7 7 7 4 3 5 4 2 2 4 5 4 3 3 5 4 5 5 5 3 6 5 4 5 6 4 3 3 10 13 13 14 12 9 6 5 6 6 8
16 15 14 15 16 16 19 19 13 7 8 10 14 11 12 16 18 9 2 1 4 4 4 10 6 7 10 7 8 9 3 3 5 4 9 12 8 5 4 3 4 4 5 6 7 5 8 6 4 7 5 6 6 5 5 6 3 3 4 8 8 6 6 5 3 4 5 5 4 6 5 3 4 6 6 7 8 13 12 14 16 13 13 11 6 4 3 6
16 15 14 15 15 17 17 10 5 9 12 10 9 11 15 18 15 2 4 3 3 4 2 6 5 7 10 8 8 6 2 3 6 7 9 12 11 7 4 2 1 4 6 5 4 3 4 4 6 6 6 6 6 5 5 7 5 2 5 9 9 6 5 4 2 4 2 0 3 4 6 2 4 7 8 8 9 12 12 15 16 13 13 12 8 6 4 5
15 15 14 14 14 15 11 5 10 14 8 5 10 16 18 19 10 4 3 3 3 3 4 2 3 8 9 9 11 8 2 3 3 5 8 12 10 5 5 4 1 3 4 4 2 3 4 5 5 6 6 6 6 4 6 8 7 3 6 7 7 6 6 5 5 4 2 2 4 5 4 4 2 5 8 8 7 11 13 16 15 13 13 13 11 9 6 5
15 14 13 13 12 12 11 12 15 10 6 8 16 18 19 18 5 5 1 1 2 2 4 2 3 8 5 7 13 8 3 4 5 3 8 16 11 5 5 6 5 5 4 5 3 4 4 6 7 7 5 4 5 6 8 10 6 7 7 6 7 6 6 5 6 3 1 2 2 6 3 5 1 5 7 7 7 10 13 14 14 13 13 12 12 12 10 7
14 14 14 13 13 13 13 13 12 9 9 14 18 20 19 12 1 3 1 2 1 2 3 3 4 5 3 7 11 7 1 3 5 2 5 12 8 4 5 6 7 7 4 5 6 4 2 6 7 7 5 5 8 7 10 12 6 6 5 5 3 3 4 4 5 4 3 4 2 7 1 5 2 5 6 6 5 7 8 9 10 12 12 11 11 11 11 9
13 14 14 13 13 12 11 12 17 14 13 16 20 21 15 5 2 2 3 3 1 1 1 2 3 4 7 9 8 7 3 2 2 3 5 5 3 3 3 3 5 5 2 1 4 4 3 2 4 5 5 7 8 6 10 13 9 3 5 5 5 5 5 4 3 4 3 1 5 8 1 5 1 3 4 4 3 4 5 6 8 10 12 11 10 11 10 9
13 14 15 14 14 11 9 9 11 8 7 15 22 17 6 1 2 2 4 3 1 1 2 2 3 5 10 11 7 7 5 1 3 5 5 4 3 2 2 3 3 3 0 2 2 4 5 2 2 4 6 5 4 3 5 8 6 5 5 4 4 2 5 4 4 4 4 2 6 5 2 8 3 2 2 4 4 5 5 5 7 9 10 10 10 10 10 8
15 16 16 17 16 13 12 9 4 4 10 19 18 8 2 2 1 3 3 3 1 1 1 3 4 5 10 9 7 8 5 3 3 6 6 5 4 4 2 3 4 3 1 4 2 4 4 3 4 4 5 5 5 2 1 2 4 5 4 5 5 1 2 1 3 1 2 3 3 4 3 6 1 2 1 4 5 5 5 6 7 9 9 9 10 9 9 9
16 18 19 20 19 20 22 18 13 15 18 18 9 2 3 2 3 5 4 3 1 0 2 1 2 5 9 7 6 7 6 4 4 5 6 6 6 6 4 3 5 5 2 4 2 1 3 5 4 2 3 3 7 5 2 2 2 5 6 5 5 3 2 2 3 0 2 2 2 4 2 3 0 1 4 5 4 4 6 7 8 9 9 9 10 11 10 11
19 20 21 22 21 23 24 21 20 18 16 11 3 3 2 2 4 3 3 3 2 2 5 2 4 5 8 7 5 7 5 3 5 6 4 4 5 5 4 1 4 5 3 3 3 3 2 4 4 4 3 3 8 7 7 7 4 3 4 6 6 5 4 3 3 3 3 2 1 2 1 3 2 1 4 5 4 5 7 8 8 9 9 8 10 11 11 12
22 22 21 20 20 21 20 19 19 14 8 4 3 3 3 4 3 1 3 2 3 2 7 2 6 5 6 3 3 7 5 2 4 6 4 5 5 6 5 4 5 4 3 4 2 2 4 4 7 5 3 4 7 5 6 8 4 1 2 6 4 5 6 3 3 5 5 2 2 3 2 1 1 3 5 5 5 7 8 8 9 10 9 9 10 10 10 9
22 20 16 16 18 15 11 14 15 12 6 1 4 2 4 3 3 2 2 1 2 3 7 2 3 5 4 1 2 6 4 3 4 4 3 5 4 4 5 4 5 6 5 4 3 1 3 4 7 3 2 4 7 6 5 6 4 1 2 4 3 4 8 5 2 1 3 4 1 1 3 2 1 3 5 7 7 7 8 8 9 9 10 11 10 9 9 8
19 17 11 14 16 9 6 12 17 13 5 3 3 4 3 3 4 3 3 4 3 5 3 0 2 3 4 3 3 5 4 3 4 4 2 3 1 2 4 2 3 8 8 4 2 2 4 3 6 1 3 5 3 4 2 2 6 4 3 5 2 3 5 4 2 2 4 4 1 2 3 2 1 1 2 6 7 6 7 7 8 10 11 10 9 8 9 9
16 12 10 13 10 7 8 17 21 12 3 2 2 3 3 3 4 5 5 5 5 4 0 2 2 3 4 4 3 4 6 4 4 4 3 2 1 1 3 1 1 5 7 5 1 2 3 1 6 2 2 4 2 6 3 4 3 5 5 4 4 3 1 1 3 2 2 3 1 3 3 1 0 1 2 5 6 6 6 8 10 11 11 9 8 9 9 9
10 6 6 6 4 10 15 22 18 6 2 2 3 2 3 4 6 7 7 6 4 1 1 1 2 3 3 4 3 3 6 6 5 4 2 2 1 1 1 1 1 1 5 8 5 2 3 2 4 5 2 1 3 4 2 2 4 3 4 3 2 3 4 2 2 3 4 3 2 2 2 1 0 1 2 5 5 6 7 8 10 10 10 8 8 8 9 9
5 2 2 1 6 15 22 19 8 2 2 3 3 3 3 4 7 9 9 7 3 1 1 0 3 2 1 3 3 2 4 5 4 3 1 2 3 1 1 0 1 0 2 6 5 1 2 3 2 5 5 1 1 1 4 5 1 1 3 2 0 2 3 2 1 2 4 4 4 3 1 1 0 2 4 7 6 5 8 9 9 8 8 9 9 9 9 9
3 1 1 3 13 22 21 10 1 1 2 1 2 2 3 5 6 9 11 8 3 2 1 1 2 3 2 2 2 1 2 3 3 2 2 2 2 1 1 1 2 2 3 4 3 1 2 3 2 2 4 3 1 4 2 5 5 3 3 2 3 3 4 3 1 1 2 4 4 5 3 2 2 3 5 8 7 7 9 10 8 8 8 8 8 9 9 9
3 1 1 8 21 22 11 2 0 2 1 1 2 3 5 5 5 7 9 5 2 1 1 2 2 2 2 2 3 2 4 4 3 2 3 2 2 2 2 2 1 3 5 4 1 2 3 4 3 2 2 1 1 4 2 7 10 8 4 2 2 3 4 5 4 3 2 3 2 4 3 2 3 5 6 7 8 8 9 9 7 6 6 7 7 8 9 9
1 1 1 13 24 14 3 2 1 1 2 2 4 5 5 5 4 5 6 4 2 2 3 2 1 3 3 3 4 4 4 4 4 3 4 2 3 2 5 5 1 3 4 3 1 1 3 4 4 1 3 3 3 4 4 7 8 7 5 3 3 1 2 5 5 3 3 2 2 4 2 2 4 6 6 7 8 9 9 8 7 6 5 6 7 8 8 9
1 1 1 11 19 6 3 2 2 1 2 2 4 5 4 4 4 6 6 4 2 1 2 3 2 3 3 3 4 4 3 4 4 4 3 3 2 3 7 6 3 3 2 2 3 2 1 1 4 4 1 4 4 4 5 6 5 4 3 4 4 3 2 4 3 3 3 2 3 5 3 2 4 6 6 7 9 10 8 7 7 6 6 6 7 7 8 9
1 0 2 5 12 6 1 2 2 1 2 2 3 5 5 4 5 6 5 3 3 2 3 2 3 3 4 4 5 7 6 5 3 2 2 3 2 3 6 7 5 4 2 2 4 4 3 2 3 5 5 3 2 2 1 1 3 3 3 6 6 5 2 2 3 4 2 2 3 4 3 4 6 7 7 6 8 9 8 7 7 7 7 6 6 7 8 8
1 1 1 1 5 4 2 1 1 2 1 0 1 4 4 4 4 3 2 1 4 4 4 3 2 4 6 6 7 8 9 7 5 3 2 3 1 2 4 6 6 6 6 7 6 4 4 3 3 5 5 5 5 3 2 2 3 3 4 7 7 5 3 2 4 3 4 4 3 1 5 8 7 6 7 6 7 7 6 7 7 7 7 7 7 7 7 7
0 1 2 2 3 2 2 2 0 2 1 2 0 3 4 4 3 2 2 2 2 3 4 4 5 5 4 5 6 5 6 7 7 5 3 3 1 2 5 6 7 7 6 6 5 4 5 3 4 8 8 4 4 5 5 7 7 5 5 6 7 6 5 6 5 2 4 5 1 2 7 9 6 6 7 5 5 6 6 7 6 6 6 6 7 7 8 9
1 1 2 1 1 3 3 3 3 4 3 2 1 3 3 1 1 1 2 2 2 3 4 4 8 6 3 4 6 3 4 6 6 4 2 3 3 2 6 6 6 8 5 4 4 4 6 2 3 8 10 9 7 8 10 12 10 9 9 8 8 9 8 8 5 2 2 3 4 8 10 8 5 7 7 5 5 6 6 6 5 6 6 7 7 8 10 10
0 1 3 1 1 2 3 3 3 5 5 4 3 3 2 1 3 1 2 3 4 6 4 4 6 7 6 5 6 4 2 3 3 2 1 2 3 2 3 3 4 6 5 5 4 3 5 3 2 7 10 9 8 6 9 13 12 10 11 10 9 11 11 9 7 7 8 7 8 12 12 8 5 6 6 6 6 5 5 5 6 7 8 7 8 9 9 9
1 1 2 2 1 1 2 2 3 4 3 4 3 3 1 2 4 3 3 4 3 3 5 7 5 7 9 9 8 4 1 5 6 2 2 3 2 2 1 1 1 4 5 4 3 3 4 3 2 4 7 6 5 5 8 12 14 12 11 9 8 9 9 8 6 7 9 9 9 11 10 6 4 5 7 6 5 5 5 6 7 8 8 7 7 8 8 8
4 5 3 1 1 1 1 2 3 4 1 2 3 2 2 2 2 5 5 5 4 4 4 9 9 7 8 10 10 5 3 6 9 6 5 5 3 2 1 2 3 2 5 3 2 4 4 5 3 3 5 2 1 5 8 10 14 13 10 9 8 7 6 5 4 4 4 8 10 9 6 3 4 5 7 7 6 7 6 6 7 7 7 8 7 8 8 8
5 5 3 1 1 2 1 1 2 3 2 2 2 0 1 1 1 5 6 6 6 6 5 9 9 7 6 8 6 3 5 6 7 6 5 5 4 3 2 2 4 3 2 2 2 3 4 5 3 2 4 3 3 4 2 4 7 6 5 5 4 4 5 5 5 7 5 4 6 4 3 5 6 6 6 6 6 6 6 6 6 5 6 7 7 7 8 8
Wind_Direction
314 314 315 315 315 317 317 316 319 318 319 319 318 320 318 318 316 316 317 315 316 315 314 313 313 314 312 311 314 318 318 312 304 290 244 251 259 254 254 265 216 189 199 205 183 171 148 154 181 167 144 141 169 209 190 179 171 121 117 143 219 201 204 199 201 214 173 262 282 312 352 101 27 339 61 30 32 81 74 35 43 34 40 94 128 139 146 156
313 313 313 314 314 315 316 316 317 317 318 317 318 318 315 316 315 316 316 315 317 313 314 315 314 315 311 312 315 320 319 309 302 275 256 261 266 261 254 241 211 203 203 208 209 184 160 182 185 144 120 141 225 205 184 193 178 168 136 158 222 202 217 214 215 253 231 252 281 297 319 49 74 215 78 83 331 28 80 42 50 63 72 104 128 138 148 155
310 311 311 312 313 313 314 315 316 317 317 317 317 316 316 315 314 315 315 314 315 314 316 315 315 315 312 314 318 321 315 311 307 268 268 271 263 254 246 231 212 203 203 209 217 200 182 165 168 131 82 189 259 200 191 235 195 184 140 188 237 207 237 258 244 263 266 263 280 285 325 2 329 171 78 129 143 14 133 171 93 96 120 129 138 144 151 158
310 310 310 311 312 312 313 314 314 315 315 316 316 316 315 314 314 313 313 314 314 315 315 316 318 315 314 321 320 315 312 315 280 256 269 264 251 246 231 220 203 192 196 204 220 204 190 132 149 133 86 227 294 237 196 239 203 183 172 203 238 189 233 260 242 261 280 293 273 265 360 360 310 16 100 129 116 312 243 225 165 145 148 146 157 159 159 165
310 309 310 310 310 311 312 312 313 314 314 315 315 315 314 314 314 312 313 313 313 315 315 318 318 314 318 323 317 308 319 334 272 259 278 263 258 240 214 205 193 187 185 194 213 181 180 126 114 115 103 202 295 56 225 236 175 185 230 222 234 186 236 257 236 249 266 290 283 286 356 328 307 11 132 140 143 230 235 215 165 156 158 160 165 164 166 174
310 307 307 308 309 310 310 312 312 313 314 315 314 314 314 313 312 312 313 311 313 314 315 320 318 319 322 320 317 295 217 267 293 332 1 343 305 224 202 190 185 185 184 193 187 156 169 124 103 135 137 169 212 204 239 245 159 207 271 247 227 212 237 267 260 252 256 249 254 261 269 160 26 324 189 156 181 226 249 156 152 162 162 163 160 159 173 180
311 307 306 306 308 308 310 312 311 312 313 313 313 313 312 311 311 310 311 311 313 313 316 320 319 323 326 329 325 259 117 260 271 271 286 327 354 191 177 174 177 182 186 184 168 160 163 143 158 159 134 170 209 214 242 255 163 197 264 270 248 221 229 254 247 259 268 232 245 237 42 321 295 295 313 263 230 232 272 121 141 157 156 157 158 166 177 164
311 308 306 306 306 308 309 310 311 312 311 312 312 311 311 310 309 308 309 310 310 312 317 319 321 329 329 333 25 316 273 249 259 260 267 281 305 138 153 164 174 184 185 186 181 166 157 160 182 155 145 214 196 202 226 226 213 203 236 261 262 241 236 250 247 258 264 246 261 256 203 246 223 240 328 279 286 105 117 115 130 142 147 160 166 174 169 132
312 310 308 306 305 306 308 309 310 310 310 311 310 309 309 308 307 307 307 308 310 312 315 318 324 330 324 329 72 305 254 248 259 265 267 259 224 157 157 166 180 186 182 193 190 160 171 186 193 182 175 217 193 200 218 200 242 213 220 249 263 263 254 250 245 247 245 236 235 194 252 261 237 145 285 266 263 116 115 117 131 139 152 169 173 174 154 134
312 308 307 307 306 305 307 308 309 310 311 310 309 308 306 306 305 305 305 307 309 309 313 317 322 326 316 318 118 241 257 259 267 264 256 231 194 170 168 177 184 186 182 191 185 175 192 181 179 195 161 218 208 212 212 185 214 206 207 248 247 257 266 236 224 238 234 226 183 186 236 267 285 153 253 273 224 137 115 126 144 147 163 174 176 170 152 155
313 307 305 305 306 306 306 308 308 309 310 309 308 307 305 304 303 303 304 304 305 306 311 312 317 323 304 329 140 219 262 283 340 360 233 207 196 182 183 191 189 189 185 174 190 199 200 173 152 139 166 220 222 228 231 199 211 237 229 289 265 265 283 228 215 231 204 224 192 178 229 272 316 221 225 248 195 144 127 143 158 157 170 175 172 163 159 174
315 310 305 302 304 306 306 308 308 309 309 309 307 305 304 303 302 302 300 301 303 304 307 307 313 310 296 352 216 233 240 167 54 12 320 209 203 198 195 200 201 200 192 179 205 209 199 180 152 158 229 225 279 248 233 220 242 280 268 311 290 341 332 244 222 212 172 200 191 150 314 297 267 233 242 247 170 144 134 152 165 167 173 173 168 163 174 179
312 311 306 303 303 304 306 307 308 308 308 308 307 306 304 301 300 298 297 298 300 301 301 301 298 285 305 277 239 243 246 236 278 303 287 246 221 218 221 221 221 220 208 201 214 213 203 199 180 191 239 192 257 250 168 320 316 298 50 141 288 3 337 263 252 178 164 188 179 133 302 280 261 253 261 221 156 132 135 164 172 177 179 174 164 168 186 179
309 310 307 304 303 304 307 307 308 308 308 308 307 306 303 301 298 293 296 296 297 300 295 288 254 221 173 250 262 265 264 263 271 271 258 241 228 228 242 239 229 225 218 215 223 216 204 204 194 210 254 193 238 275 344 359 7 324 327 72 333 54 279 289 298 158 156 226 166 115 253 263 276 274 239 168 172 141 160 186 180 185 182 177 169 174 193 190
308 309 309 305 304 306 307 307 309 308 309 309 307 306 303 299 295 294 298 295 294 286 268 258 209 186 11 274 277 283 265 261 255 245 235 226 215 217 237 227 221 221 218 219 227 229 207 196 179 194 259 214 91 319 325 351 360 26 349 302 332 182 260 310 315 169 155 274 22 112 224 269 278 285 331 155 180 157 176 194 191 195 187 181 173 179 199 204
307 307 309 306 303 307 308 308 310 309 311 310 309 307 301 299 297 295 290 280 277 240 225 216 196 185 313 278 286 293 245 238 242 235 226 220 216 218 223 207 207 214 217 223 231 247 258 254 186 179 215 194 110 96 37 2 337 9 114 228 284 228 279 316 325 303 159 144 342 146 206 277 275 285 33 128 173 170 184 205 204 198 192 182 174 186 199 205
307 306 308 307 304 307 308 309 311 311 312 312 312 308 304 304 296 284 270 242 214 200 181 167 181 176 256 274 296 295 245 224 226 224 211 211 218 218 195 164 185 196 207 229 239 258 277 284 241 223 69 107 116 102 84 296 289 319 8 142 261 263 296 289 318 325 101 131 244 219 204 251 261 265 360 79 160 176 194 210 210 201 189 180 181 191 197 208
307 305 306 307 306 307 309 310 312 313 314 314 314 311 311 318 294 254 210 179 137 137 193 240 182 160 264 271 261 258 285 229 210 210 201 199 209 212 191 159 156 142 141 257 252 216 216 207 159 141 47 77 112 107 153 216 206 207 235 76 300 322 329 272 283 285 351 81 223 233 246 251 262 270 297 9 124 181 210 214 211 202 184 182 187 193 203 212
305 304 305 308 307 307 309 311 313 314 316 316 319 319 321 44 73 119 142 155 132 123 210 219 185 161 283 262 228 251 306 309 200 204 190 187 198 204 201 189 128 118 118 89 220 200 168 80 86 147 182 177 167 151 174 200 174 167 165 137 166 314 289 262 253 257 278 298 238 223 236 247 257 266 285 337 35 174 203 191 195 208 199 195 182 195 208 200
304 304 307 309 306 306 307 310 313 314 318 320 327 335 358 99 60 115 143 186 210 227 240 195 194 235 303 278 24 348 324 343 179 201 184 182 178 171 198 193 102 106 139 150 196 205 141 162 192 186 194 195 198 186 178 176 146 148 139 119 199 245 280 278 265 280 251 180 249 223 219 244 249 258 289 330 6 19 163 147 166 192 209 211 189 206 204 149
302 305 308 308 308 307 307 310 311 312 316 316 321 333 278 242 93 48 254 234 237 241 257 236 203 235 263 265 334 4 346 331 331 269 185 181 161 142 200 171 128 164 177 157 167 82 120 179 217 211 200 192 190 185 177 157 120 124 146 163 290 239 258 273 265 295 250 170 258 219 203 241 245 266 330 358 19 360 336 153 187 200 199 202 203 210 151 83
304 307 308 309 309 306 308 310 309 310 307 305 304 280 263 264 86 349 327 266 253 231 240 250 228 243 253 261 283 302 307 272 301 310 181 170 151 160 194 123 147 198 175 135 120 69 129 215 233 220 191 153 137 147 149 143 120 106 117 150 266 247 277 293 283 297 275 167 267 160 169 243 265 289 360 21 27 9 358 1 313 262 225 220 220 185 91 81
306 307 309 310 309 308 311 309 306 304 296 291 264 224 257 290 327 328 321 275 277 228 221 237 234 246 249 257 262 239 219 213 235 278 181 161 152 176 160 128 169 176 133 147 151 148 177 245 233 192 138 129 147 146 128 125 110 116 132 156 249 246 26 291 286 305 336 19 268 132 134 285 312 336 57 47 31 46 27 18 10 348 291 271 19 82 110 124
306 308 309 309 311 312 312 310 307 305 302 285 249 242 283 316 322 320 304 204 282 247 212 215 214 237 237 237 217 193 204 207 194 240 178 162 144 152 155 149 162 159 163 164 151 165 218 241 191 132 134 152 185 199 143 156 251 236 178 179 233 233 196 224 272 321 348 1 29 93 60 337 336 351 5 335 19 48 30 22 22 9 355 4 57 87 123 139
305 308 309 310 314 315 313 312 312 322 327 289 259 279 322 324 324 315 228 352 288 267 218 201 199 229 215 190 182 182 184 230 214 203 171 166 155 144 165 152 138 174 190 158 145 192 235 231 122 118 148 158 179 214 178 167 202 286 223 201 220 228 222 235 310 6 31 9 360 76 74 308 322 3 351 333 21 40 27 28 26 14 16 25 39 54 83 114
304 306 311 314 313 318 318 313 323 331 318 281 270 317 329 331 339 263 177 21 288 253 166 170 183 196 184 165 176 162 86 263 222 188 170 169 165 147 151 162 117 181 180 151 153 216 232 191 149 151 160 160 182 223 209 165 148 281 234 204 212 216 202 191 83 55 78 343 325 68 112 203 336 12 350 334 20 33 28 34 29 21 27 30 28 21 45 97
306 305 309 312 313 326 326 305 320 322 302 275 312 323 326 336 350 163 157 10 266 212 148 171 193 174 178 178 163 141 165 235 171 175 173 168 170 134 143 180 143 169 165 125 181 237 181 162 171 167 153 163 186 221 210 159 132 232 238 195 185 178 178 164 104 96 182 216 334 7 96 121 17 354 333 331 20 28 27 34 31 29 29 32 36 33 42 83
307 307 308 309 314 317 303 297 309 301 250 296 323 326 330 335 348 141 105 295 221 141 141 199 195 171 179 165 154 157 220 177 149 204 176 166 169 117 144 188 171 173 165 133 191 249 170 166 184 173 154 177 199 205 185 152 147 240 231 180 176 170 162 148 107 105 114 80 339 317 43 92 310 304 334 355 30 25 21 26 28 31 29 28 37 42 48 54
305 307 305 307 309 301 297 290 274 257 273 305 322 327 326 324 17 110 320 234 165 107 130 135 161 170 154 144 162 189 234 145 173 203 143 161 169 128 166 196 166 168 180 166 199 243 211 188 180 158 157 201 218 201 163 158 190 236 192 121 84 79 90 95 103 110 51 66 219 266 26 106 273 313 349 6 26 12 9 19 23 30 31 28 30 38 48 51
305 304 301 305 304 303 310 283 259 263 289 303 317 324 319 316 83 93 236 235 221 190 106 130 173 158 149 149 166 198 193 132 153 110 113 153 168 146 157 140 119 135 179 215 214 240 278 226 161 154 180 208 218 191 161 176 190 158 127 96 52 38 40 46 64 93 77 16 246 254 260 101 126 317 349 9 20 354 1 24 24 29 30 27 27 31 37 40
306 301 299 297 294 299 308 284 261 259 284 307 319 321 314 64 70 163 209 248 264 182 102 166 181 142 156 160 163 189 190 117 114 131 146 147 147 160 79 75 80 85 121 302 289 287 321 344 189 221 212 200 196 185 173 185 172 104 113 113 93 16 17 27 356 45 103 252 259 250 61 76 101 254 341 29 34 17 16 29 31 34 32 29 32 32 31 29
302 299 297 289 285 279 263 249 238 265 300 316 324 326 100 94 237 219 245 309 341 216 208 184 182 161 163 163 165 176 162 131 142 147 158 144 152 189 146 150 164 110 212 237 265 318 314 247 255 283 234 179 150 193 250 101 99 107 115 98 106 56 17 39 298 4 161 239 231 195 100 68 85 228 77 48 35 25 29 43 48 48 43 40 39 37 35 31
301 299 294 286 281 268 256 253 263 281 303 316 324 29 90 118 221 222 250 303 45 163 274 207 162 154 155 157 169 167 146 161 176 149 162 154 151 196 208 172 157 136 182 202 171 323 304 289 298 308 261 183 144 158 171 126 127 144 144 125 128 124 103 205 261 216 206 254 218 207 143 82 275 225 101 78 40 22 37 48 55 56 50 47 43 39 37 31
303 301 296 289 281 268 261 260 263 273 296 312 347 86 106 194 237 218 225 282 45 330 281 201 123 133 160 167 161 153 147 191 180 134 144 146 138 189 220 211 156 140 137 150 148 169 184 285 260 195 239 187 162 175 171 156 150 167 155 130 140 149 141 192 212 166 195 223 283 294 84 118 211 160 89 87 57 39 47 45 49 49 42 47 48 41 37 28
307 305 301 293 279 266 257 252 252 253 269 312 71 104 193 221 260 208 219 267 75 313 284 211 132 145 174 178 147 158 158 191 175 136 140 163 160 183 193 200 193 153 127 155 196 166 156 236 252 237 240 173 172 192 154 126 116 238 137 105 137 179 144 140 180 173 176 149 19 358 84 108 178 106 71 77 78 62 59 50 48 44 32 37 43 37 34 28
315 315 308 289 275 265 246 230 224 212 207 136 103 187 224 230 252 220 254 321 105 257 291 312 136 148 161 166 181 181 157 120 155 148 154 168 168 180 179 200 198 168 148 159 199 146 128 249 277 291 266 203 180 185 161 147 160 191 123 143 194 167 124 119 180 176 99 117 43 354 123 87 64 96 63 68 82 72 63 56 54 48 38 37 34 26 23 16
320 320 305 281 273 260 212 191 183 177 174 132 153 216 238 245 256 261 295 326 283 258 277 240 159 137 152 173 191 185 155 128 159 158 165 172 186 191 177 215 200 183 184 162 192 205 140 259 285 267 240 253 181 133 95 134 140 122 168 189 159 78 90 107 135 16 44 120 248 352 112 117 54 159 93 81 87 82 66 59 54 45 40 36 27 20 15 5
315 311 290 281 264 217 182 169 164 157 124 131 200 257 249 242 272 287 300 313 295 279 144 160 169 114 144 170 200 181 156 164 179 157 152 168 190 139 145 181 207 200 197 152 146 248 130 287 289 271 229 278 45 80 40 351 68 124 164 162 114 112 145 97 120 123 97 138 162 24 47 88 75 224 145 108 108 106 75 55 52 43 36 30 18 14 9 5
301 291 301 307 205 174 164 157 154 134 74 151 208 256 249 261 280 287 302 310 293 285 18 176 132 99 129 150 165 173 165 177 175 152 139 139 140 68 101 171 173 212 183 148 150 238 114 110 281 292 305 305 31 62 165 279 354 60 83 50 70 137 156 162 142 147 151 161 151 85 22 293 223 322 102 104 106 116 93 66 57 47 36 26 14 9 4 4
269 258 342 352 169 160 152 149 143 79 125 177 206 234 285 304 291 291 305 306 278 209 262 294 102 97 99 120 128 156 168 162 142 131 108 89 99 41 332 213 140 75 149 145 150 192 85 113 231 295 329 32 70 341 208 197 214 64 78 58 324 81 108 150 108 108 135 147 152 129 138 232 111 11 63 75 58 75 90 80 66 52 37 24 13 9 4 358
260 227 296 196 164 150 145 143 115 145 174 235 226 237 295 303 293 297 303 298 260 208 181 127 97 110 114 94 86 97 110 92 82 95 67 52 98 111 300 242 170 157 100 98 109 126 140 145 170 300 354 54 41 311 254 151 129 132 126 132 155 126 116 125 150 289 92 117 156 146 152 183 80 57 71 71 53 52 72 78 71 54 40 26 13 9 4 356
248 174 285 177 159 150 142 120 72 172 202 244 237 274 290 286 287 294 300 304 283 280 60 72 62 81 82 86 93 86 86 69 30 76 93 70 105 138 294 325 117 135 109 113 176 168 137 112 89 37 359 110 230 300 17 96 96 91 78 80 112 117 116 126 179 219 78 82 128 104 110 147 88 78 78 77 70 61 63 72 74 57 41 30 17 11 6 358
242 16 351 170 164 153 74 60 131 271 252 249 275 282 278 277 287 291 298 318 336 350 34 27 23 66 45 55 86 74 79 71 33 64 113 78 51 352 313 328 35 82 81 119 205 70 89 87 83 57 325 318 275 289 9 53 73 73 45 32 50 38 120 140 168 172 118 117 110 78 91 155 115 93 84 82 81 73 64 63 64 55 37 25 19 15 7 359
316 349 351 183 185 192 20 138 172 258 246 291 299 279 272 266 260 272 287 307 323 30 61 12 1 54 34 40 75 63 72 88 47 39 92 91 37 337 343 356 49 76 63 172 171 111 79 81 94 108 38 351 329 326 7 22 40 67 25 351 9 13 61 123 123 85 96 161 142 118 131 141 114 99 86 82 79 74 66 60 59 53 37 22 18 16 8 1
342 193 332 210 205 218 247 173 153 150 233 314 313 284 284 269 244 240 252 311 352 70 87 15 353 45 36 39 60 44 41 80 94 36 58 69 6 339 355 1 30 70 74 137 127 108 105 101 107 129 148 170 193 226 214 41 34 56 16 357 10 15 22 135 122 80 102 164 108 107 138 126 111 97 80 72 74 71 64 59 56 50 40 26 17 15 9 4
56 153 298 191 188 207 247 245 123 137 220 13 329 278 252 243 264 240 199 21 16 47 63 25 2 44 40 47 63 41 31 55 84 86 73 60 19 329 346 2 25 48 59 65 68 86 99 72 63 106 131 176 185 198 200 120 79 61 13 4 9 359 349 81 104 111 159 140 58 31 149 131 118 101 83 68 69 71 62 52 50 44 37 28 22 14 6 6
118 164 195 145 156 205 259 292 224 176 187 117 183 265 238 240 288 332 39 46 34 45 56 28 16 47 61 73 82 52 25 45 58 67 67 51 64 330 352 19 23 11 32 53 39 66 98 55 31 69 70 66 95 82 64 73 76 77 60 25 16 19 35 66 81 118 146 123 88 193 138 123 111 96 86 76 72 74 65 56 52 47 40 34 25 12 9 11
220 263 244 196 163 190 218 255 222 212 223 185 226 277 278 298 41 10 331 26 37 36 73 28 4 31 94 114 108 83 29 47 42 37 45 31 44 12 359 16 11 358 22 47 22 74 103 58 27 77 68 49 56 72 80 84 78 66 64 52 35 41 59 74 74 57 95 123 159 145 120 106 99 92 83 75 73 73 69 64 61 56 46 37 27 19 15 11
83 279 273 310 49 170 196 223 200 202 218 212 236 280 276 36 51 359 323 50 32 8 66 75 5 23 56 76 99 93 61 99 74 13 72 42 47 63 33 16 358 2 34 50 26 74 97 61 60 95 83 55 40 56 84 91 85 63 52 51 51 57 66 72 78 79 77 85 113 115 103 89 90 93 87 84 80 77 74 65 56 53 45 34 29 24 16 7
325 305 315 7 4 214 218 234 169 173 211 209 228 273 308 55 53 42 16 66 96 1 41 90 70 52 64 68 80 86 161 145 124 117 143 108 70 83 113 193 298 3 25 47 21 28 79 130 171 93 80 58 39 62 85 90 88 71 48 38 45 57 58 53 64 82 83 85 96 101 96 89 91 95 88 81 73 70 66 55 50 46 39 34 31 24 15 10
294 294 313 6 309 283 243 229 149 139 194 210 210 266 5 26 73 89 42 27 107 115 106 119 104 65 61 64 71 92 155 126 112 122 141 132 136 151 136 173 166 45 16 33 34 18 69 137 170 80 85 100 104 111 108 97 87 71 48 38 40 49 58 46 32 45 88 118 118 109 103 111 118 107 90 74 66 65 56 49 50 45 36 35 31 23 17 13
310 305 331 84 221 294 252 222 97 116 194 216 189 6 40 290 293 97 76 18 36 71 106 128 112 80 67 66 71 138 175 143 129 141 141 114 98 97 88 112 128 114 87 97 66 32 87 128 146 109 108 142 191 185 140 82 78 59 26 26 41 60 78 65 32 22 37 106 126 119 124 127 123 115 99 81 71 66 55 47 49 46 42 39 32 26 20 15
Height
803 802 801 801 800 799 798 797 796 795 795 794 793 792 790 789 788 787 786 785 784 783 782 781 780 780 779 777 776 775 774 771 768 769 764 752 751 755 755 756 758 759 760 760 761 761 762 763 764 765 766 767 769 769 768 768 768 771 779 787 789 788 784 774 770 766 765 762 754 750 748 747 749 746 742 743 747 750 752 753 754 751 748 748 747 747 750 753
802 802 801 800 799 798 797 797 796 795 794 793 792 791 790 789 787 786 785 784 783 782 781 780 780 779 778 777 775 775 773 769 768 765 753 747 751 753 753 755 756 757 758 759 760 760 762 763 764 765 766 768 769 768 769 767 767 772 779 785 784 781 775 766 763 760 760 761 756 752 749 746 749 748 744 750 756 753 754 758 758 758 755 751 750 750 751 753
802 801 800 799 798 798 797 796 795 794 793 792 791 790 789 788 787 786 785 784 782 781 781 779 779 778 777 776 775 774 772 770 767 756 744 745 748 747 749 753 754 755 756 758 759 760 761 763 763 765 767 769 769 769 769 767 767 770 775 782 777 772 768 762 760 757 755 757 756 753 748 746 746 745 745 751 758 757 757 758 758 762 760 756 754 752 753 754
801 800 799 798 798 797 796 795 794 793 792 792 791 790 789 787 786 785 784 783 782 781 780 779 778 777 776 775 775 773 772 770 759 746 742 744 743 743 746 749 752 754 755 757 759 760 761 762 763 764 768 771 770 769 770 767 768 769 771 775 769 767 767 759 755 755 752 752 754 752 749 749 744 743 747 752 759 761 757 752 752 758 758 757 756 754 754 755
800 799 798 798 797 796 795 794 793 792 792 791 790 789 788 786 785 784 783 782 781 780 779 778 777 776 775 774 774 772 773 768 750 740 742 742 740 741 742 745 750 752 754 757 758 760 761 762 763 765 769 771 771 770 770 765 764 769 768 766 764 766 765 755 753 754 751 750 752 751 749 749 744 744 748 751 757 757 750 746 747 751 752 752 753 754 755 755
799 798 798 797 796 795 794 793 792 792 791 790 789 788 787 786 784 783 782 781 780 779 778 777 776 775 774 773 772 771 772 762 744 740 742 740 739 738 740 743 747 751 753 756 758 760 761 762 764 767 769 771 772 770 768 763 763 770 767 762 762 763 762 755 753 752 749 751 752 749 746 746 747 747 747 749 752 747 742 742 745 747 747 747 750 753 755 757
798 798 797 796 795 794 793 792 791 790 790 789 788 787 786 785 783 782 781 780 780 778 778 776 775 775 773 772 771 771 772 757 740 741 741 739 740 737 739 743 746 750 752 755 757 759 761 763 765 766 769 771 771 768 765 763 763 769 768 761 759 760 759 755 753 751 750 752 750 747 745 746 748 748 747 745 745 744 741 741 744 747 748 749 751 753 754 758
797 797 796 795 794 793 792 791 790 790 789 788 787 786 785 783 782 781 780 780 778 778 777 776 775 774 773 772 771 771 770 752 738 741 741 741 741 739 740 744 747 749 750 754 755 758 760 762 763 764 769 770 767 766 764 764 765 767 766 760 757 757 755 752 753 753 751 752 750 748 747 747 747 748 748 744 742 744 743 742 745 748 751 752 754 754 756 761
796 795 794 794 793 792 791 790 789 788 787 787 786 785 784 782 781 780 779 778 777 777 776 775 775 774 773 772 773 771 758 743 738 741 741 741 741 741 742 743 747 748 750 753 754 758 759 760 761 760 765 766 764 764 761 764 767 762 760 759 757 756 752 751 753 752 752 751 750 751 751 748 745 748 749 744 743 745 744 745 747 750 754 755 756 756 759 763
795 794 793 792 791 791 789 789 788 787 786 785 784 783 782 781 780 779 778 777 777 776 776 775 774 773 774 772 773 767 747 738 740 739 739 740 740 741 742 743 745 747 749 752 754 756 755 756 758 757 761 763 761 762 760 762 763 757 757 757 756 755 752 752 751 749 750 749 748 751 752 749 747 752 752 745 744 745 746 749 749 751 755 756 757 758 761 762
794 793 792 791 790 789 788 788 786 786 785 783 783 782 781 780 778 777 777 776 775 775 775 774 774 773 773 772 772 760 741 738 739 737 739 740 740 740 741 742 743 746 748 751 752 751 751 753 755 757 762 761 759 761 759 757 756 755 756 756 754 754 752 752 751 749 749 749 747 748 751 750 750 753 749 743 744 745 747 752 752 752 755 756 757 760 761 762
793 791 790 789 789 788 787 786 785 784 783 782 782 780 779 778 776 776 775 775 774 774 774 773 774 773 772 773 767 749 738 739 738 738 740 739 740 740 740 742 743 744 746 749 749 748 751 753 754 759 760 758 760 761 756 753 754 753 755 758 755 753 752 750 749 748 748 748 744 748 756 755 752 749 744 743 745 746 749 752 753 754 755 756 758 760 761 762
791 790 789 788 788 787 786 785 784 783 782 781 780 778 777 776 775 774 773 773 772 773 773 773 773 772 773 768 750 738 738 740 737 738 740 740 741 741 741 742 743 744 745 746 747 747 751 752 754 758 756 758 760 757 752 751 753 754 755 759 758 758 756 749 748 747 746 748 742 749 766 761 750 746 744 746 747 748 752 754 754 755 755 757 758 760 761 761
790 789 788 787 786 785 785 784 783 782 781 779 778 777 775 773 773 772 771 771 771 772 772 772 772 772 773 758 738 736 738 738 738 737 737 738 739 740 740 741 742 743 745 746 747 748 751 751 754 756 755 756 756 751 753 755 755 756 758 761 764 767 761 749 748 749 748 750 742 748 768 762 747 743 745 748 747 748 753 754 754 754 755 757 758 760 760 759
789 787 786 786 785 784 783 782 781 780 779 778 776 774 772 771 770 769 770 769 770 771 770 772 771 771 773 756 737 735 736 735 735 732 734 736 737 738 738 739 740 742 744 746 747 749 750 752 755 758 756 752 752 755 760 761 758 761 765 769 770 768 763 752 747 748 749 750 745 751 766 761 748 742 744 748 747 749 752 753 754 753 754 756 758 759 759 758
787 786 785 784 783 783 782 781 780 779 778 776 774 772 770 768 767 767 767 767 769 769 770 771 769 771 769 751 736 734 733 732 730 729 733 734 734 736 736 738 740 741 744 745 747 748 749 752 753 755 754 752 756 761 765 768 767 767 770 771 770 767 767 759 750 748 749 749 749 753 761 758 748 742 744 747 747 749 752 752 751 751 753 755 757 758 758 758
786 785 783 783 782 781 781 780 779 777 776 774 772 769 766 765 764 764 765 767 768 768 769 769 768 772 760 740 735 734 729 728 727 728 730 731 733 734 735 739 740 741 743 744 747 749 749 752 753 753 754 756 759 761 771 781 777 773 773 771 772 770 769 765 757 751 749 751 752 753 756 754 745 741 745 747 748 750 751 749 748 749 752 754 755 756 757 757
784 783 782 781 780 780 779 778 777 776 774 773 770 766 763 762 761 762 763 766 767 769 770 768 770 769 749 733 734 731 726 726 726 726 727 729 732 733 735 737 738 741 744 747 748 749 751 754 755 757 758 760 760 763 775 781 775 773 774 772 773 772 769 769 763 754 751 753 755 756 758 753 745 742 743 745 749 750 747 747 748 749 752 753 755 756 756 756
782 781 780 780 779 778 778 777 776 775 773 771 769 765 762 761 761 762 763 764 765 764 761 760 761 753 737 730 729 727 726 725 724 725 726 728 730 733 735 735 737 741 747 752 752 750 752 755 758 762 764 764 761 763 768 769 767 770 772 772 773 773 770 768 763 753 751 757 758 759 758 751 747 745 743 744 749 750 747 747 749 751 752 753 755 756 755 757
781 780 779 778 777 777 776 775 774 774 772 770 768 765 762 761 761 762 764 764 759 752 747 748 748 740 732 729 727 726 726 723 723 724 724 726 728 733 735 736 739 742 747 752 753 750 750 757 763 763 763 761 760 760 760 763 767 769 771 772 772 774 771 764 759 752 751 760 759 756 757 753 748 746 746 747 749 751 750 748 749 750 752 754 756 756 755 758
779 778 778 777 776 775 774 774 773 772 772 771 770 769 763 759 759 761 762 758 751 747 745 743 744 738 731 728 727 729 730 726 724 722 724 725 726 734 737 737 743 748 749 749 750 750 751 761 764 758 757 757 757 759 759 763 768 769 771 773 773 776 772 761 758 754 752 759 758 756 760 757 749 747 750 751 751 755 755 752 750 749 750 753 753 754 758 762
778 777 776 775 774 774 773 772 771 770 771 770 770 770 765 759 760 760 760 755 747 744 743 740 742 737 729 729 729 731 735 732 726 722 723 725 727 734 737 739 746 750 749 749 752 756 759 763 759 755 758 759 760 762 763 766 769 770 772 774 774 774 770 762 757 755 753 756 756 757 761 758 751 751 756 757 757 761 761 757 756 753 752 752 753 756 762 764
777 775 775 774 773 772 771 770 769 768 768 767 768 767 762 759 759 759 759 757 746 737 737 738 737 733 729 731 729 731 735 732 728 723 721 724 729 732 735 741 746 749 751 752 755 762 766 761 753 755 760 760 761 765 767 768 770 771 772 774 774 771 772 769 761 755 754 757 756 755 759 758 754 752 757 765 765 765 764 761 760 759 756 755 756 759 761 762
775 774 774 772 771 770 768 768 766 765 765 764 764 760 758 757 758 758 757 754 745 733 728 728 729 728 726 726 726 729 731 726 725 722 719 723 728 730 734 740 745 750 752 752 754 760 760 753 749 754 759 758 760 765 768 769 771 771 770 771 770 768 769 768 763 756 754 759 758 755 762 764 758 756 762 767 766 766 768 766 765 765 762 759 758 758 758 759
773 773 772 770 770 768 766 766 763 763 763 762 759 756 757 757 755 757 756 751 745 733 724 723 725 722 717 721 724 724 725 723 719 718 717 720 725 730 734 737 743 751 753 752 756 758 755 749 748 754 759 760 762 764 766 768 769 770 767 764 762 762 766 765 763 760 761 766 763 761 774 777 767 768 774 773 771 773 774 773 771 771 768 765 764 762 761 761
772 771 770 769 769 766 765 764 762 763 761 758 756 754 757 756 754 755 754 753 746 731 723 722 721 715 711 718 720 720 727 723 713 713 716 718 720 725 734 738 740 747 750 750 754 755 750 746 746 752 757 760 763 765 764 764 769 771 762 755 756 760 765 765 761 762 769 773 768 764 774 780 776 779 783 780 780 782 780 778 777 776 773 771 771 770 768 767
770 769 769 769 767 766 765 763 762 763 759 756 753 754 754 752 754 753 752 758 745 721 719 722 716 709 707 710 712 719 730 721 711 713 713 717 719 720 733 741 740 743 743 748 756 752 745 746 748 750 754 760 764 764 761 760 768 769 753 747 756 759 762 763 760 764 770 770 769 766 766 774 784 788 788 785 785 787 784 783 782 780 778 776 774 774 774 772
769 768 767 767 766 766 765 763 763 761 757 754 751 752 750 750 754 750 754 760 734 706 711 716 710 706 705 708 709 714 718 712 715 718 710 714 719 721 733 739 739 742 737 745 758 750 741 746 748 749 755 759 757 755 754 756 762 758 744 747 755 754 756 758 759 766 772 772 774 772 766 776 794 796 793 791 789 791 790 788 787 784 782 779 777 776 776 776
767 766 766 766 766 765 764 764 763 758 755 753 751 751 748 750 750 749 760 755 718 699 705 707 707 708 707 710 711 710 709 709 715 716 711 716 719 721 731 733 734 740 737 741 751 746 740 740 740 745 752 752 746 745 748 752 754 747 744 750 753 754 758 758 761 766 772 779 779 774 769 779 798 804 800 798 797 798 797 793 790 788 785 783 781 779 778 778
766 765 765 765 765 764 763 762 758 755 754 753 752 749 746 749 750 757 767 744 709 702 704 704 708 708 708 713 715 713 712 712 712 713 715 719 719 720 726 728 731 739 741 741 744 743 738 735 735 740 742 738 736 740 743 744 744 742 746 752 754 759 760 762 768 767 775 786 779 775 775 776 793 807 806 803 803 802 799 796 794 791 789 787 784 783 782 781
765 764 763 763 763 763 762 759 754 753 755 753 751 748 747 749 753 763 755 720 704 708 706 708 709 706 709 714 716 717 716 714 713 717 721 722 724 726 728 732 736 742 747 746 745 744 740 738 738 733 730 730 733 739 742 740 741 743 749 753 758 766 767 770 775 773 784 791 780 781 783 780 795 808 807 804 803 802 800 798 796 794 793 791 787 786 785 785
763 762 762 761 761 762 760 755 752 753 753 752 751 747 748 755 760 760 737 709 711 713 706 709 708 706 710 711 713 716 717 718 716 718 723 726 731 732 732 737 741 748 757 753 749 747 742 740 737 730 726 728 734 743 745 744 747 749 751 755 766 779 782 784 787 786 789 786 783 787 785 791 808 810 805 806 804 803 801 798 797 796 796 793 790 788 788 788
762 761 759 758 757 757 755 752 752 754 752 752 752 747 751 761 756 743 729 717 716 713 705 705 705 705 710 712 715 715 716 719 717 719 722 724 732 734 732 734 735 742 752 754 753 752 747 742 736 734 730 725 732 744 748 750 751 749 750 755 768 784 792 798 802 801 793 784 785 786 785 802 816 808 804 808 805 803 801 798 797 797 797 796 794 792 791 792
759 758 756 754 753 751 749 751 752 754 754 753 750 749 757 762 744 728 727 719 713 713 708 702 704 707 709 711 713 713 717 721 717 719 725 727 734 738 736 736 735 735 741 750 755 753 756 753 738 732 731 725 728 734 736 741 746 747 747 750 760 772 782 791 794 792 788 785 785 784 791 810 816 809 807 806 804 803 800 799 798 798 799 798 797 797 797 797
756 754 752 750 748 746 746 749 751 753 756 752 750 755 760 754 735 725 723 714 713 718 708 698 703 711 713 712 710 709 714 720 719 720 727 731 734 737 736 735 734 734 737 749 754 751 757 753 731 725 727 722 725 726 724 733 746 752 750 751 757 757 761 779 788 784 780 783 791 798 805 813 810 807 807 804 804 803 801 802 802 802 802 800 799 801 802 802
752 750 749 746 743 743 743 747 749 752 754 750 751 757 755 742 729 724 717 708 714 718 710 705 706 712 719 716 713 711 709 715 720 722 727 731 731 732 732 730 729 731 733 742 749 750 754 748 730 725 725 719 722 722 721 728 741 752 752 750 753 749 750 770 787 790 782 782 802 813 812 812 812 809 807 806 806 805 805 807 807 807 806 803 804 805 805 805
751 748 746 743 740 740 742 743 746 751 751 749 751 752 746 735 725 720 713 707 710 709 710 715 710 710 719 718 715 713 710 715 719 722 729 732 731 731 729 727 725 725 726 731 739 744 748 744 731 727 725 720 719 720 721 722 729 745 750 745 748 753 754 762 778 790 787 788 807 817 813 815 817 812 810 809 808 808 809 810 811 811 808 808 809 809 809 808
750 749 745 739 737 738 740 742 745 748 748 750 753 748 740 732 722 716 712 708 708 706 709 714 709 707 714 716 716 713 712 719 721 723 729 731 731 729 727 727 725 724 723 725 733 739 743 745 736 727 728 724 718 722 729 727 724 731 737 736 745 758 763 766 776 787 790 796 811 820 819 819 817 813 810 810 810 810 811 812 813 814 814 814 815 813 813 812
750 749 743 737 736 737 740 742 744 746 748 752 755 747 736 730 721 714 710 709 708 706 707 708 705 707 710 711 714 713 712 717 720 724 728 731 732 729 726 727 725 725 724 722 731 736 739 747 742 730 729 727 723 729 738 737 731 729 733 739 744 751 759 764 770 777 782 795 811 819 821 819 815 812 809 808 810 810 812 816 818 820 821 821 820 819 817 816
749 748 742 737 737 738 740 743 744 746 748 750 750 743 734 729 721 712 708 708 707 703 705 705 703 707 709 708 710 712 712 715 719 725 729 731 733 730 726 725 724 726 725 723 729 734 737 748 748 735 731 734 737 741 741 738 737 737 740 746 749 750 755 760 768 773 773 783 802 813 818 819 814 812 812 813 815 813 815 820 824 826 826 825 824 822 821 820
748 746 741 738 739 740 741 744 746 747 748 746 744 740 734 728 723 715 707 706 703 699 700 702 702 705 708 708 711 711 712 717 722 727 731 732 734 732 726 724 724 726 726 727 730 734 738 745 747 743 740 746 751 749 743 738 741 744 746 752 756 754 757 763 773 779 773 779 794 801 809 817 816 815 817 820 822 820 821 824 828 829 829 828 827 825 825 823
746 743 740 739 740 740 741 744 746 747 747 744 740 736 732 728 724 717 709 704 702 699 698 700 703 705 707 708 710 711 714 722 726 729 732 734 734 733 727 724 725 723 725 733 736 735 737 741 749 753 753 756 755 750 746 743 744 748 754 763 764 757 756 760 769 776 779 788 794 794 805 818 818 819 821 824 826 826 826 828 830 831 831 830 830 827 827 826
745 742 740 740 741 740 742 745 747 747 746 741 737 733 730 728 724 718 712 707 704 702 701 703 703 705 707 707 707 711 717 725 730 730 732 734 733 731 727 724 725 724 726 735 738 735 736 743 754 761 757 753 748 746 746 744 744 751 761 770 770 765 761 759 764 769 777 790 792 791 806 818 819 822 824 825 828 828 829 831 831 832 832 831 831 829 828 827
746 745 743 742 742 743 744 744 745 746 743 738 736 733 729 727 724 720 715 710 706 704 705 707 706 705 708 707 708 715 717 724 732 732 731 735 733 729 727 724 723 725 727 731 733 732 739 749 755 761 765 762 757 753 749 748 755 764 773 777 775 773 767 763 768 770 775 792 793 787 803 817 819 824 826 826 828 829 831 833 832 833 833 832 832 830 829 829
747 747 746 743 742 745 745 742 741 743 742 740 739 736 732 727 719 716 715 711 707 706 708 710 709 708 710 709 712 718 717 720 731 733 732 735 733 729 728 726 724 726 726 728 728 731 744 757 756 756 767 770 767 765 762 762 767 773 780 781 777 777 771 763 765 764 772 794 798 790 804 818 822 826 828 829 830 832 833 834 833 833 834 833 833 832 831 831
747 748 748 745 743 744 743 740 741 743 743 743 742 737 733 727 716 712 712 711 709 708 710 713 711 711 714 715 718 724 724 722 727 731 734 736 735 733 731 727 726 726 726 727 729 732 747 765 765 759 762 764 766 771 772 773 774 778 785 787 783 785 781 767 761 764 775 793 800 800 806 814 822 828 830 832 833 834 836 835 834 835 835 834 834 833 833 832
746 745 745 744 744 745 744 741 741 742 742 744 742 734 729 724 717 712 711 712 712 711 713 717 716 715 719 721 724 730 732 729 728 733 737 737 736 735 732 729 728 728 726 728 731 734 747 766 772 772 775 775 776 780 780 780 784 789 793 793 792 791 783 771 771 779 784 784 791 802 806 811 825 831 832 836 837 837 838 837 837 838 836 836 835 834 834 832
745 744 741 738 740 743 744 741 740 741 742 745 742 733 726 722 718 717 713 711 714 713 715 722 725 723 721 721 725 732 736 736 738 740 739 738 738 736 735 733 732 731 729 730 734 737 751 770 775 777 785 788 787 787 785 786 792 795 796 796 797 794 786 783 790 797 793 783 786 802 811 819 831 835 836 839 839 839 840 839 839 839 837 837 837 835 835 834
744 744 740 737 739 740 740 738 738 740 741 743 739 730 725 722 719 719 717 714 719 720 720 728 734 730 726 723 725 734 739 739 741 744 742 741 742 741 741 739 736 734 732 735 739 741 755 775 779 777 787 794 794 793 791 790 794 798 800 800 800 799 797 798 801 803 801 797 798 808 820 829 836 837 839 841 840 840 841 841 841 840 839 839 838 838 838 837
744 743 741 741 741 740 739 738 737 737 737 739 736 728 724 724 721 721 721 720 725 726 725 732 737 734 731 729 729 736 741 738 738 742 742 742 744 743 744 744 741 738 736 740 743 743 754 775 779 776 787 798 800 799 796 795 798 803 807 807 804 803 804 806 807 805 806 811 815 818 826 834 838 839 840 841 841 842 843 843 843 842 842 842 841 841 841 839
745 742 741 742 741 739 738 736 735 735 733 734 733 726 723 725 723 721 724 724 725 726 727 732 735 734 734 734 735 739 740 737 736 738 738 738 741 741 742 744 744 741 741 744 746 745 753 771 777 776 786 798 800 800 799 795 794 802 811 813 811 810 811 813 814 810 809 814 817 817 823 834 840 840 841 843 844 845 846 846 845 845 845 845 844 844 843 841
745 742 741 742 740 737 736 734 733 733 729 728 729 726 725 726 722 721 726 729 727 728 731 731 731 734 738 738 738 738 737 736 736 738 738 738 739 740 741 742 743 743 744 746 751 753 756 768 775 774 783 796 798 796 796 788 784 797 813 817 816 815 815 815 817 817 815 813 813 816 824 835 840 841 843 846 847 848 849 848 848 848 847 847 847 846 845 843